Location: Kelshall
(52.0000°N, 0.0500°W)
Time: 07:48:51
(UTC+00:00)

Meteor 1-15 Rocket - Pass Details

Date: 21 January 2021
Orbit: 840 x 907 km, 81.2° (Epoch: 24 February)

Event Time Altitude Azimuth Distance (km) Brightness Sun altitude
Exits shadow 05:48:04 21° 326° (NW) 1,867 5.6 -19.1°
Drops below altitude 10° 05:50:56 10° 353° (N) 2,522 6.5 -18.6°
Sets 05:53:56 0° 8° (N) 3,476 7.4 -18.2°
